When you browse on this site, cookies collect data to enhance your experience and personalize the content and advertising you see.
Visit our Privacy Policy to learn more. By continuing to use the site, you agree to this use of cookies and data.
  • In United Kingdom
  • List of Countries
  • For 7 days
  • Water Temperature
  • Satellite Maps
  • Weather Map
  • Weather Widgets
  • user-avatar
    Login

    Hourly Weather Nahariyya

    Today, 23 March, Saturday

    Time Temperature Precipitation Wind Pressure Humidity
    00:00 +14°C° 0 mm 0 mps 760 mmHg 85%
    01:00 +14°C° 0 mm 0 mps 760 mmHg 85%
    02:00 +14°C° 0 mm 0 mps 760 mmHg 85%
    03:00 +14°C° 0 mm 0 mps 759 mmHg 84%
    04:00 +15°C° 0 mm 1 mps 759 mmHg 84%
    05:00 +14°C° 0 mm 1 mps 759 mmHg 83%
    06:00 +16°C° 0 mm 1 mps 759 mmHg 80%
    07:00 +16°C° 0 mm 0 mps 759 mmHg 76%
    08:00 +17°C° 0 mm 0 mps 759 mmHg 72%
    09:00 +20°C° 0 mm 1 mps 759 mmHg 69%
    10:00 +21°C° 0 mm 1 mps 758 mmHg 65%
    11:00 +22°C° 0 mm 1 mps 758 mmHg 62%
    12:00 +21°C° 0 mm 2 mps 758 mmHg 63%
    13:00 +21°C° 0 mm 3 mps 757 mmHg 64%
    14:00 +21°C° 0 mm 4 mps 757 mmHg 65%
    15:00 +20°C° 0 mm 4 mps 757 mmHg 68%
    16:00 +19°C° 0 mm 3 mps 756 mmHg 72%
    17:00 +18°C° 0 mm 3 mps 756 mmHg 75%
    18:00 +18°C° 0 mm 2 mps 756 mmHg 77%
    19:00 +17°C° 0 mm 2 mps 756 mmHg 78%
    20:00 +16°C° 0 mm 1 mps 756 mmHg 80%
    21:00 +16°C° 0 mm 1 mps 756 mmHg 79%
    22:00 +15°C° 0 mm 1 mps 756 mmHg 78%
    23:00 +15°C° 0 mm 1 mps 755 mmHg 77%

    Tomorrow, 24 March, Sunday

    Time Temperature Precipitation Wind Pressure Humidity
    00:00 +15°C° 0 mm 1 mps 755 mmHg 75%
    01:00 +15°C° 0 mm 2 mps 754 mmHg 73%
    02:00 +15°C° 0 mm 2 mps 754 mmHg 71%
    03:00 +14°C° 0 mm 2 mps 754 mmHg 72%
    04:00 +14°C° 0 mm 2 mps 753 mmHg 73%
    05:00 +13°C° 0 mm 1 mps 753 mmHg 73%
    06:00 +15°C° 0 mm 1 mps 753 mmHg 69%
    07:00 +16°C° 0 mm 1 mps 753 mmHg 64%
    08:00 +18°C° 0 mm 1 mps 753 mmHg 59%
    09:00 +18°C° 0 mm 2 mps 753 mmHg 58%
    10:00 +19°C° 0 mm 3 mps 753 mmHg 57%
    11:00 +20°C° 0 mm 4 mps 753 mmHg 55%
    12:00 +20°C° 0 mm 4 mps 752 mmHg 56%
    13:00 +20°C° 0 mm 4 mps 752 mmHg 56%
    14:00 +20°C° 0 mm 4 mps 751 mmHg 56%
    15:00 +19°C° 0 mm 4 mps 751 mmHg 59%
    16:00 +18°C° 0 mm 4 mps 751 mmHg 62%
    17:00 +17°C° 0 mm 4 mps 751 mmHg 66%
    18:00 +15°C° 0 mm 4 mps 751 mmHg 69%
    19:00 +14°C° 0 mm 4 mps 751 mmHg 72%
    20:00 +13°C° 0 mm 4 mps 751 mmHg 75%
    21:00 +13°C° 0.5 mm 4 mps 751 mmHg 76%
    22:00 +13°C° 0.5 mm 4 mps 751 mmHg 77%
    23:00 +12°C° 0.5 mm 4 mps 751 mmHg 78%

    Day after tomorrow, 25 March, Monday

    Time Temperature Precipitation Wind Pressure Humidity
    00:00 +12°C° 0.2 mm 3 mps 751 mmHg 75%
    01:00 +12°C° 0.2 mm 3 mps 750 mmHg 73%
    02:00 +13°C° 0.2 mm 2 mps 750 mmHg 70%
    03:00 +12°C° 0 mm 3 mps 750 mmHg 69%
    04:00 +12°C° 0 mm 4 mps 750 mmHg 69%
    05:00 +12°C° 0 mm 5 mps 750 mmHg 68%
    06:00 +11°C° 0.2 mm 6 mps 751 mmHg 67%
    07:00 +12°C° 0.2 mm 7 mps 751 mmHg 66%
    08:00 +14°C° 0.2 mm 7 mps 751 mmHg 65%
    09:00 +13°C° 0.1 mm 8 mps 752 mmHg 64%
    10:00 +15°C° 0.1 mm 9 mps 752 mmHg 63%
    11:00 +14°C° 0.1 mm 10 mps 752 mmHg 62%
    12:00 +14°C° 0.1 mm 10 mps 752 mmHg 63%
    13:00 +14°C° 0.1 mm 11 mps 752 mmHg 65%
    14:00 +13°C° 0.1 mm 11 mps 752 mmHg 66%
    15:00 +13°C° 0 mm 10 mps 753 mmHg 65%
    16:00 +13°C° 0 mm 9 mps 753 mmHg 63%
    17:00 +12°C° 0 mm 9 mps 753 mmHg 62%
    18:00 +12°C° 0 mm 8 mps 754 mmHg 61%
    19:00 +11°C° 0 mm 6 mps 754 mmHg 60%
    20:00 +12°C° 0 mm 5 mps 755 mmHg 60%
    21:00 +12°C° 0 mm 5 mps 755 mmHg 60%
    22:00 +12°C° 0 mm 5 mps 755 mmHg 61%
    23:00 +12°C° 0 mm 5 mps 756 mmHg 62%

    26 March, Tuesday

    Time Temperature Precipitation Wind Pressure Humidity
    00:00 +12°C° 0 mm 4 mps 756 mmHg 64%
    01:00 +11°C° 0 mm 4 mps 756 mmHg 66%
    02:00 +11°C° 0 mm 4 mps 756 mmHg 68%
    03:00 +11°C° 0 mm 4 mps 756 mmHg 70%
    04:00 +11°C° 0 mm 3 mps 756 mmHg 72%
    05:00 +11°C° 0 mm 3 mps 756 mmHg 74%
    06:00 +12°C° 0 mm 3 mps 757 mmHg 71%
    07:00 +13°C° 0 mm 3 mps 757 mmHg 68%
    08:00 +16°C° 0 mm 3 mps 758 mmHg 65%
    09:00 +15°C° 0 mm 4 mps 758 mmHg 65%
    10:00 +16°C° 0 mm 5 mps 758 mmHg 64%
    11:00 +17°C° 0 mm 5 mps 758 mmHg 64%
    12:00 +17°C° 0 mm 5 mps 758 mmHg 64%
    13:00 +17°C° 0 mm 5 mps 758 mmHg 65%
    14:00 +17°C° 0 mm 6 mps 757 mmHg 66%
    15:00 +16°C° 0 mm 5 mps 758 mmHg 68%
    16:00 +16°C° 0 mm 5 mps 758 mmHg 70%
    17:00 +15°C° 0 mm 4 mps 758 mmHg 73%
    18:00 +14°C° 0 mm 4 mps 758 mmHg 74%
    19:00 +14°C° 0 mm 3 mps 759 mmHg 76%
    20:00 +13°C° 0 mm 3 mps 759 mmHg 77%
    21:00 +13°C° 0 mm 3 mps 759 mmHg 78%
    22:00 +13°C° 0 mm 3 mps 759 mmHg 79%
    23:00 +12°C° 0 mm 3 mps 759 mmHg 80%

    27 March, Wednesday

    Time Temperature Precipitation Wind Pressure Humidity
    00:00 +12°C° 0 mm 3 mps 759 mmHg 79%
    01:00 +12°C° 0 mm 3 mps 759 mmHg 78%
    02:00 +12°C° 0 mm 3 mps 759 mmHg 76%
    03:00 +12°C° 0 mm 4 mps 759 mmHg 76%
    04:00 +12°C° 0 mm 4 mps 759 mmHg 76%
    05:00 +11°C° 0 mm 4 mps 760 mmHg 76%
    06:00 +12°C° 0.1 mm 4 mps 760 mmHg 74%
    07:00 +13°C° 0.1 mm 4 mps 760 mmHg 72%
    08:00 +14°C° 0.1 mm 5 mps 760 mmHg 70%
    09:00 +15°C° 0.1 mm 5 mps 760 mmHg 69%
    10:00 +16°C° 0.1 mm 5 mps 761 mmHg 68%
    11:00 +17°C° 0.1 mm 5 mps 761 mmHg 67%
    12:00 +19°C° 0.3 mm 5 mps 760 mmHg 66%
    13:00 +19°C° 0.3 mm 5 mps 760 mmHg 66%
    14:00 +20°C° 0.3 mm 6 mps 760 mmHg 65%
    15:00 +19°C° 0.1 mm 5 mps 760 mmHg 69%
    16:00 +18°C° 0.1 mm 4 mps 760 mmHg 74%
    17:00 +18°C° 0.1 mm 3 mps 760 mmHg 78%
    18:00 +17°C° 0 mm 3 mps 760 mmHg 82%
    19:00 +16°C° 0 mm 2 mps 760 mmHg 85%
    20:00 +15°C° 0 mm 2 mps 761 mmHg 88%
    21:00 +14°C° 0 mm 2 mps 760 mmHg 88%
    22:00 +13°C° 0 mm 3 mps 760 mmHg 87%
    23:00 +13°C° 0 mm 4 mps 760 mmHg 87%

    28 March, Thursday

    Time Temperature Precipitation Wind Pressure Humidity
    00:00 +12°C° 0.1 mm 4 mps 759 mmHg 83%
    01:00 +12°C° 0.1 mm 4 mps 759 mmHg 80%
    02:00 +12°C° 0.1 mm 4 mps 759 mmHg 76%
    03:00 +12°C° 0 mm 4 mps 758 mmHg 74%
    04:00 +12°C° 0 mm 5 mps 758 mmHg 71%
    05:00 +12°C° 0 mm 5 mps 758 mmHg 69%
    06:00 +14°C° 0 mm 5 mps 758 mmHg 66%
    07:00 +15°C° 0 mm 6 mps 758 mmHg 63%
    08:00 +17°C° 0 mm 6 mps 758 mmHg 60%
    09:00 +19°C° 0 mm 6 mps 758 mmHg 54%
    10:00 +21°C° 0 mm 6 mps 758 mmHg 47%
    11:00 +22°C° 0 mm 6 mps 758 mmHg 41%
    12:00 +20°C° 0.3 mm 5 mps 757 mmHg 52%
    13:00 +19°C° 0.3 mm 3 mps 757 mmHg 63%
    14:00 +17°C° 0.3 mm 2 mps 757 mmHg 74%
    15:00 +17°C° 0.1 mm 2 mps 757 mmHg 72%
    16:00 +17°C° 0.1 mm 2 mps 757 mmHg 70%
    17:00 +18°C° 0.1 mm 2 mps 757 mmHg 69%
    18:00 +17°C° 0.6 mm 2 mps 757 mmHg 72%
    19:00 +15°C° 0.6 mm 2 mps 757 mmHg 75%
    20:00 +14°C° 0.6 mm 2 mps 758 mmHg 79%
    21:00 +14°C° 0 mm 2 mps 758 mmHg 80%
    22:00 +14°C° 0 mm 2 mps 758 mmHg 81%
    23:00 +13°C° 0 mm 2 mps 758 mmHg 82%
    Show more